New York, NY

5:57 PM EDT on August 17, 2017 (GMT -0400)
La Guardia

Weather History for KLGA - April, 2012

Change the Weather History Date:

Monday, April 16, 2012

  Actual Average Record
Temperature  
Mean Temperature 75 °F 53 °F  
Max Temperature 85 °F 61 °F 89 °F (2002)
Min Temperature 65 °F 45 °F 31 °F (1943)
Degree Days  
Heating Degree Days 0 12  
Month to date heating degree days 162 239  
Since 1 July heating degree days 3402 4375  
Cooling Degree Days 10 0  
Month to date cooling degree days 14 0  
Year to date cooling degree days 14 0  
Growing Degree Days 24 (Base 50)    
Moisture  
Dew Point 53 °F    
Average Humidity 49    
Maximum Humidity 63    
Minimum Humidity 34    
Precipitation  
Precipitation 0.00 in 0.13 in 2.45 in (1983)
Month to date precipitation 0.60 2.24  
Year to date precipitation 5.45 12.14  
Snow  
Snow 0.00 in 0.00 in 0.20 in (2014)
Month to date snowfall 0.0 0.4  
Since 1 July snowfall 5.1 26.8  
Snow Depth 0.00 in    
Sea Level Pressure  
Sea Level Pressure 29.96 in    
Wind  
Wind Speed 9 mph (SSW)    
Max Wind Speed 21 mph    
Max Gust Speed 26 mph    
Visibility 10 miles    
Events      
T = Trace of Precipitation, MM = Missing Value Source: NWS Daily Summary

Daily Weather History Graph

Daily Weather History Graph

Search for Another Location

Airport or City:

Trip Planner

Search our weather history database for the weather conditions in past years. The results will help you decide how hot, cold, wet, or windy it might be!

Date:

Astronomy

Apr. 16, 2012 Rise Set
Actual Time 6:14 AM EDT 7:36 PM EDT
Civil Twilight 5:45 AM EDT 8:05 PM EDT
Nautical Twilight 5:11 AM EDT 8:39 PM EDT
Astronomical Twilight 4:35 AM EDT 9:15 PM EDT
Moon 3:43 AM EDT (4/16) 3:27 PM EDT (4/16)
Length of Visible Light 14h 19m
Length of Day
13h 22m
Waning Crescent, 19% of the Moon is Illuminated
Apr 16
Waning Crescent
Apr 21
New
Apr 29
First Quarter
May 5
Full
May 12
Last Quarter

Hourly Weather History & Observations

Time (EDT) Temp. Heat Index Dew Point Humidity Pressure Visibility Wind Dir Wind Speed Gust Speed Precip Events Conditions
12:51 AM 69.1 °F - 52.0 °F 54% 30.00 in 10.0 mi SSW 6.9 mph - N/A   Partly Cloudy
1:51 AM 69.1 °F - 51.1 °F 53% 29.99 in 10.0 mi SSW 6.9 mph - N/A   Clear
2:51 AM 70.0 °F - 51.1 °F 51% 29.97 in 10.0 mi SW 9.2 mph - N/A   Partly Cloudy
3:51 AM 69.1 °F - 52.0 °F 54% 29.97 in 10.0 mi SSW 5.8 mph - N/A   Scattered Clouds
4:51 AM 68.0 °F - 52.0 °F 56% 29.98 in 10.0 mi SW 5.8 mph - N/A   Scattered Clouds
5:51 AM 64.9 °F - 51.1 °F 61% 29.99 in 10.0 mi Calm Calm - N/A   Scattered Clouds
6:51 AM 66.9 °F - 53.1 °F 61% 30.00 in 10.0 mi SSW 5.8 mph - N/A   Mostly Cloudy
7:51 AM 66.9 °F - 53.1 °F 61% 30.01 in 10.0 mi South 5.8 mph - N/A   Mostly Cloudy
8:51 AM 69.1 °F - 53.1 °F 57% 30.01 in 10.0 mi South 6.9 mph - N/A   Mostly Cloudy
9:51 AM 75.0 °F - 53.1 °F 46% 30.02 in 10.0 mi SW 8.1 mph - N/A   Scattered Clouds
10:51 AM 77.0 °F - 54.0 °F 45% 30.02 in 10.0 mi WSW 9.2 mph - N/A   Scattered Clouds
11:51 AM 80.6 °F 80.3 °F 53.6 °F 39% 30.00 in 10.0 mi South 6.9 mph - N/A   Scattered Clouds
12:51 PM 80.1 °F 80.1 °F 55.0 °F 42% 29.98 in 10.0 mi SSE 12.7 mph - N/A   Scattered Clouds
1:51 PM 84.0 °F 82.6 °F 54.0 °F 35% 29.96 in 10.0 mi South 10.4 mph - N/A   Mostly Cloudy
2:51 PM 84.9 °F 83.2 °F 53.1 °F 33% 29.94 in 10.0 mi South 12.7 mph - N/A   Mostly Cloudy
3:51 PM 78.1 °F - 55.0 °F 45% 29.93 in 10.0 mi SSE 16.1 mph - N/A   Mostly Cloudy
4:51 PM 75.0 °F - 55.0 °F 50% 29.92 in 10.0 mi South 17.3 mph - N/A   Mostly Cloudy
5:51 PM 73.9 °F - 55.0 °F 52% 29.92 in 10.0 mi SSE 16.1 mph - N/A   Mostly Cloudy
6:51 PM 73.0 °F - 52.0 °F 48% 29.90 in 10.0 mi South 10.4 mph - N/A   Mostly Cloudy
7:51 PM 71.1 °F - 52.0 °F 51% 29.91 in 10.0 mi South 10.4 mph - N/A   Partly Cloudy
8:51 PM 71.1 °F - 53.1 °F 53% 29.92 in 10.0 mi South 5.8 mph - N/A   Partly Cloudy
9:51 PM 72.0 °F - 54.0 °F 53% 29.92 in 10.0 mi SSW 6.9 mph - N/A   Clear
10:51 PM 71.6 °F - 55.4 °F 57% 29.91 in 10.0 mi SSW 8.1 mph - N/A   Clear
11:51 PM 75.0 °F - 55.9 °F 51% 29.92 in 10.0 mi SSW 8.1 mph - N/A   Clear